Pagina principale
METAR-TAF:

METAR-TAF

Aeroporti :

NASA Shuttle Landing Facility

John F. Kennedy Space Center, Florida, Stati Uniti

latitudine: 28-37N, longitudine: 080-43W, altezza: 3 m

Osservazione

Il bollettino è stato emesso 44 minuti fa, alle 18:56 UTC
Vento 8 kt da est
Temperature 25°C
Umidità 47%
Pressione 1021 hPa
Visibilità: 16.1 km
Poco nuvoloso ad un'altezza di 4800 ft

METAR: KTTS 211856Z AUTO 09008KT 10SM FEW048 25/13 A3015 RMK AO2 SLP214 T02490134 FZRANO $

Ora: 14:40 (19:40 UTC)


TAF: mancante

Osservazioni e previsioni meteorologiche di più di 4000 aeroporti (messaggi METAR e TAF).

Le stazioni disponibili sono rappresentate dai dischi gialli e rossi sulla carta.

Puntare il mouse per vedere il nome della stazione.

Clicca sopra per visualizzare le osservazioni e previsioni meteorologiche.

Per cambiare la mappa : fare clic sui pulsanti verdi con una croce nera per ingrandire, il pulsante verde con un trattino per diminuire, o sulla freccia verde per le mappe adiacenti.


METAR-TAF: